Sussex, NJ

7:19 PM EST on November 18, 2019 (GMT -0500)
Sussex

Weather History for KFWN - September, 2019

Change the Weather History Date:

Wednesday, September 18, 2019

  Actual Average Record
Temperature  
Mean Temperature 58 °F -  
Max Temperature 71 °F 74 °F 92 °F (1991)
Min Temperature 45 °F 48 °F 32 °F (1986)
Degree Days  
Heating Degree Days 7    
Growing Degree Days 8 (Base 50)    
Moisture  
Dew Point 46 °F    
Average Humidity 71    
Maximum Humidity 93    
Minimum Humidity 39    
Precipitation  
Precipitation 0.00 in - - ()
Sea Level Pressure  
Sea Level Pressure 30.25 in    
Wind  
Wind Speed 3 mph ()    
Max Wind Speed 15 mph    
Max Gust Speed 20 mph    
Visibility 10.0 miles    
Events      
Averages and records for this station are not official NWS values.
T = Trace of Precipitation, MM = Missing Value Source: Averaged Metar Reports

Daily Weather History Graph

Daily Weather History Graph

Search for Another Location

Airport or City:

Astronomy

Sep. 18, 2019 Rise Set
Actual Time 6:41 AM EDT 7:02 PM EDT
Civil Twilight 6:14 AM EDT 7:30 PM EDT
Nautical Twilight 5:41 AM EDT 8:02 PM EDT
Astronomical Twilight 5:08 AM EDT 8:36 PM EDT
Moon 9:33 PM EDT (9/18) 10:44 AM EDT (9/18)
Length of Visible Light 13h 16m
Length of Day
12h 21m
Waning Gibbous, 82% of the Moon is Illuminated
Sep 18
Waning Gibbous
Sep 21
Last Quarter
Sep 28
New
Oct 5
First Quarter
Oct 13
Full

Hourly Weather History & Observations

Time (EDT) Temp. Dew Point Humidity Pressure Visibility Wind Dir Wind Speed Gust Speed Precip Events Conditions
12:53 AM 48.0 °F 46.0 °F 93% 30.19 in 10.0 mi Calm Calm - N/A   Clear
1:53 AM 48.0 °F 45.0 °F 89% 30.19 in 10.0 mi Calm Calm - N/A   Clear
2:53 AM 46.0 °F 44.1 °F 93% 30.19 in 10.0 mi Calm Calm - N/A   Clear
3:53 AM 46.0 °F 44.1 °F 93% 30.20 in 10.0 mi Calm Calm - N/A   Clear
4:53 AM 45.0 °F 43.0 °F 93% 30.20 in 10.0 mi Calm Calm - N/A   Clear
5:53 AM 45.0 °F 43.0 °F 93% 30.22 in 10.0 mi Calm Calm - N/A   Clear
6:53 AM 45.0 °F 43.0 °F 93% 30.25 in 10.0 mi Calm Calm - N/A   Clear
7:53 AM 50.0 °F 48.0 °F 93% 30.26 in 10.0 mi Calm Calm - N/A   Clear
8:53 AM 57.9 °F 48.9 °F 72% 30.27 in 10.0 mi NNE 8.1 mph - N/A   Clear
9:53 AM 59.0 °F 48.0 °F 67% 30.27 in 10.0 mi ENE 15.0 mph - N/A   Clear
10:53 AM 64.0 °F 50.0 °F 60% 30.27 in 10.0 mi ENE 11.5 mph - N/A   Scattered Clouds
11:53 AM 66.9 °F 50.0 °F 54% 30.26 in 10.0 mi ENE 13.8 mph 19.6 mph N/A   Partly Cloudy
12:53 PM 68.0 °F 46.0 °F 45% 30.26 in 10.0 mi NE 10.4 mph - N/A   Partly Cloudy
1:53 PM 69.1 °F 46.9 °F 45% 30.25 in 10.0 mi East 8.1 mph - N/A   Clear
2:53 PM 70.0 °F 44.1 °F 39% 30.24 in 10.0 mi NNE 9.2 mph - N/A   Clear
3:53 PM 71.1 °F 45.0 °F 39% 30.24 in 10.0 mi ENE 6.9 mph - N/A   Clear
4:53 PM 70.0 °F 46.0 °F 42% 30.24 in 10.0 mi ENE 10.4 mph 17.3 mph N/A   Clear
5:53 PM 68.0 °F 45.0 °F 43% 30.25 in 10.0 mi ENE 8.1 mph - N/A   Clear
6:53 PM 63.0 °F 43.0 °F 48% 30.25 in 10.0 mi NNE 6.9 mph - N/A   Clear
7:53 PM 57.0 °F 46.0 °F 67% 30.28 in 10.0 mi Calm Calm - N/A   Clear
8:53 PM 52.0 °F 46.0 °F 80% 30.29 in 10.0 mi Calm Calm - N/A   Clear
9:53 PM 50.0 °F 46.0 °F 86% 30.32 in 10.0 mi Calm Calm - N/A   Clear
10:53 PM 46.9 °F 45.0 °F 93% 30.32 in 10.0 mi Calm Calm - N/A   Clear
11:53 PM 46.0 °F 43.0 °F 89% 30.33 in 10.0 mi Calm Calm - N/A   Clear